Location: Powder Track
(41.8531°N, 72.3584°W)
Time: 00:42:06
(UTC+00:00)

Vanguard 2 Rocket - Pass Details

Date: 07 August 2021
Orbit: 556 x 3324 km, 32.9° (Epoch: 22 September)

Event Time Altitude Azimuth Distance (km) Brightness Sun altitude
Rises 08:23:43 0° 214° (SSW) 4,799 - -14.6°
Exits shadow 08:28:37 - 196° (SSW) 3,327 9.3 -13.8°
Reaches altitude 10° 08:29:06 10° 193° (SSW) 3,197 9.2 -13.8°
Maximum altitude 08:32:50 14° 163° (SSE) 2,466 8.9 -13.2°
Drops below altitude 10° 08:35:52 10° 131° (SE) 2,462 9.3 -12.8°
Sets 08:39:05 0° 105° (ESE) 3,092 10.2 -12.3°
